Santa Rosa, CA

10:13 PM PDT on May 23, 2017 (GMT -0700)
Sonoma County

Weather History for KSTS - August, 2013

Change the Weather History Date:

Friday, August 2, 2013

  Actual Average Record
Temperature  
Mean Temperature 66 °F 67 °F  
Max Temperature 85 °F 83 °F 100 °F (1998)
Min Temperature 46 °F 52 °F 46 °F (2012)
Degree Days  
Heating Degree Days 0    
Month to date heating degree days 2  
Since 1 June heating degree days 60  
Since 1 July heating degree days 23  
Cooling Degree Days 1    
Month to date cooling degree days 1  
Year to date cooling degree days 233  
Since 1 June cooling degree days 178  
Growing Degree Days 15 (Base 50)    
Moisture  
Dew Point 49 °F    
Average Humidity 61    
Maximum Humidity 93    
Minimum Humidity 28    
Precipitation  
Precipitation 0.00 in 0.00 in 0.00 in (2017)
Month to date precipitation 0.00 0.00  
Year to date precipitation 6.53 22.10  
Since 1 July precipitation 0.01  
Sea Level Pressure  
Sea Level Pressure 29.90 in    
Wind  
Wind Speed 5 mph (South)    
Max Wind Speed 15 mph    
Max Gust Speed 18 mph    
Visibility 10 miles    
Events Fog    
T = Trace of Precipitation, MM = Missing Value Source: NWS Daily Summary

Daily Weather History Graph

Daily Weather History Graph

Search for Another Location

Airport or City:

Trip Planner

Search our weather history database for the weather conditions in past years. The results will help you decide how hot, cold, wet, or windy it might be!

Date:

Astronomy

Aug. 02, 2013 Rise Set
Actual Time 6:14 AM PDT 8:20 PM PDT
Civil Twilight 5:44 AM PDT 8:49 PM PDT
Nautical Twilight 5:08 AM PDT 9:25 PM PDT
Astronomical Twilight 4:29 AM PDT 10:03 PM PDT
Moon 2:40 AM PDT (8/2) 5:21 PM PDT (8/2)
Length of Visible Light 15h 04m
Length of Day
14h 05m
Waning Crescent, 15% of the Moon is Illuminated
Aug 2
Waning Crescent
Aug 6
New
Aug 14
First Quarter
Aug 20
Full
Aug 28
Last Quarter

Hourly Weather History & Observations

Time (PDT) Temp. Dew Point Humidity Pressure Visibility Wind Dir Wind Speed Gust Speed Precip Events Conditions
12:53 AM 54.0 °F 50.0 °F 86% 29.93 in 10.0 mi SSE 4.6 mph - N/A   Clear
1:53 AM 52.0 °F 48.9 °F 89% 29.91 in 10.0 mi Calm Calm - N/A   Clear
2:53 AM 51.1 °F 48.0 °F 89% 29.91 in 10.0 mi Calm Calm - N/A   Clear
3:53 AM 50.0 °F 46.9 °F 89% 29.91 in 10.0 mi Calm Calm - N/A   Clear
4:53 AM 46.0 °F 45.0 °F 96% 29.91 in 8.0 mi Calm Calm - N/A   Clear
5:53 AM 46.9 °F 44.1 °F 90% 29.91 in 10.0 mi Calm Calm - N/A   Clear
6:20 AM 46.4 °F 44.6 °F 93% 29.93 in 7.0 mi Calm Calm - N/A   Partly Cloudy
6:53 AM 48.0 °F 46.0 °F 93% 29.93 in 8.0 mi Calm Calm - N/A Fog Patches of Fog
7:53 AM 52.0 °F 48.9 °F 89% 29.95 in 9.0 mi South 4.6 mph - N/A Fog Patches of Fog
8:53 AM 57.9 °F 50.0 °F 75% 29.96 in 10.0 mi Calm Calm - N/A   Clear
9:53 AM 64.0 °F 50.0 °F 60% 29.94 in 10.0 mi Calm Calm - N/A   Clear
10:53 AM 71.1 °F 51.1 °F 49% 29.93 in 10.0 mi South 5.8 mph - N/A   Clear
11:53 AM 75.9 °F 51.1 °F 42% 29.92 in 10.0 mi Variable 3.5 mph - N/A   Clear
12:53 PM 81.0 °F 48.9 °F 33% 29.90 in 10.0 mi SSW 5.8 mph - N/A   Clear
1:53 PM 82.0 °F 48.0 °F 30% 29.89 in 10.0 mi South 11.5 mph - N/A   Clear
2:53 PM 84.0 °F 48.9 °F 29% 29.88 in 10.0 mi South 15.0 mph - N/A   Clear
3:53 PM 82.9 °F 48.9 °F 31% 29.86 in 10.0 mi South 12.7 mph - N/A   Clear
4:53 PM 82.9 °F 46.0 °F 27% 29.86 in 10.0 mi South 11.5 mph - N/A   Clear
5:53 PM 81.0 °F 51.1 °F 35% 29.85 in 10.0 mi SSE 11.5 mph - N/A   Clear
6:53 PM 75.0 °F 51.1 °F 43% 29.84 in 10.0 mi SSE 11.5 mph - N/A   Clear
7:53 PM 66.9 °F 51.1 °F 57% 29.85 in 10.0 mi SSE 8.1 mph - N/A   Clear
8:53 PM 61.0 °F 51.1 °F 70% 29.87 in 10.0 mi SSE 5.8 mph - N/A   Clear
9:53 PM 57.9 °F 50.0 °F 75% 29.89 in 10.0 mi SSE 4.6 mph - N/A   Clear
10:53 PM 55.0 °F 50.0 °F 83% 29.89 in 9.0 mi South 4.6 mph - N/A   Clear
11:53 PM 53.1 °F 50.0 °F 89% 29.89 in 9.0 mi South 5.8 mph - N/A   Clear